FW2156 Weather Reports


Display with metric or nautical units.
time (UTC)temp
F
wind
direction
speed
MPH
gust
MPH
rain 1hr
in
rain 24hr
in
rain mn
in
humidity
%
barometer
mb
20260502170142 56 141 1.0 1.0 0.00 0.00 0.00 53 1016.3
20260502164139 54 142 0.0 1.0 0.00 0.00 0.00 56 1016.3
20260502163638 54 35 2.0 2.0 0.00 0.00 0.00 58 1016.6
20260502163118 53 100 2.0 2.0 0.00 0.00 0.00 59 1016.6
20260502162613 53 103 1.0 1.0 0.00 0.00 0.00 59 1016.6
20260502162113 53 140 1.0 1.0 0.00 0.00 0.00 58 1016.3
20260502161615 53 93 2.0 3.0 0.00 0.00 0.00 60 1016.6
20260502161045 52 101 3.0 3.0 0.00 0.00 0.00 63 1016.6
20260502160540 52 154 0.0 0.0 0.00 0.00 0.00 63 1016.6
20260502152039 50 283 0.0 1.0 0.00 0.00 0.00 68 1016.9
20260502151538 50 218 0.0 0.0 0.00 0.00 0.00 68 1016.9
20260502151039 50 229 0.0 1.0 0.00 0.00 0.00 70 1016.6
20260502150530 50 314 0.0 1.0 0.00 0.00 0.00 70 1016.6
20260502130539 47 228 0.0 0.0 0.00 0.00 0.00 73 1016.3
20260502123538 47 129 0.0 0.0 0.00 0.00 0.00 74 1016.3
20260502123042 47 161 0.0 0.0 0.00 0.00 0.00 73 1015.9
20260502122542 47 228 0.0 0.0 0.00 0.00 0.00 73 1016.3
20260502122043 48 228 0.0 0.0 0.00 0.00 0.00 72 1015.9
20260502121542 48 171 0.0 0.0 0.00 0.00 0.00 72 1015.9
20260502121025 48 228 0.0 0.0 0.00 0.00 0.00 72 1015.9
20260502120525 48 246 0.0 0.0 0.00 0.00 0.00 71 1015.9
20260502115523 48 249 0.0 0.0 0.00 0.00 0.00 71 1015.9
20260502115024 48 241 0.0 0.0 0.00 0.00 0.00 71 1015.9
20260502114526 48 239 0.0 0.0 0.00 0.00 0.00 71 1015.9
20260502114025 48 331 0.0 1.0 0.00 0.00 0.00 71 1015.9
20260502113522 48 187 0.0 0.0 0.00 0.00 0.00 71 1015.9
20260502113023 49 215 0.0 0.0 0.00 0.00 0.00 71 1015.9
20260502112524 49 358 0.0 1.0 0.00 0.00 0.00 71 1015.9
20260502112024 49 232 0.0 0.0 0.00 0.00 0.00 71 1015.9
20260502111522 49 216 0.0 0.0 0.00 0.00 0.00 70 1015.9
20260502111025 49 78 2.0 2.0 0.00 0.00 0.00 70 1015.9
20260502110542 49 325 0.0 1.0 0.00 0.00 0.00 69 1015.9
20260502110040 49 228 0.0 1.0 0.00 0.00 0.00 69 1015.9
20260502105541 49 240 1.0 1.0 0.00 0.00 0.00 68 1015.9
20260502105041 50 244 0.0 1.0 0.00 0.00 0.00 69 1016.3
20260502104539 50 231 0.0 1.0 0.00 0.00 0.00 68 1015.9
20260502104038 50 249 1.0 1.0 0.00 0.00 0.00 68 1015.9
20260502103541 50 255 0.0 0.0 0.00 0.00 0.00 69 1015.9
20260502103039 50 311 0.0 1.0 0.00 0.00 0.00 69 1015.9
20260502102621 50 250 0.0 1.0 0.00 0.00 0.00 70 1015.9
20260502102124 50 189 0.0 0.0 0.00 0.00 0.00 71 1015.9
20260502101642 50 4 0.0 0.0 0.00 0.00 0.00 70 1015.9
20260502101140 50 39 0.0 1.0 0.00 0.00 0.00 69 1016.3
20260502100624 50 335 1.0 2.0 0.00 0.00 0.00 69 1015.9
20260502100120 50 262 1.0 2.0 0.00 0.00 0.00 69 1015.6
20260502091119 51 279 1.0 1.0 0.00 0.00 0.00 69 1015.9
20260502090620 51 249 0.0 1.0 0.00 0.00 0.00 68 1015.9
20260502090118 51 233 2.0 2.0 0.00 0.00 0.00 67 1015.9
20260502071119 51 228 2.0 3.0 0.00 0.00 0.00 66 1015.9
20260502070621 51 247 1.0 1.0 0.00 0.00 0.00 66 1015.9
20260502070127 52 224 0.0 0.0 0.00 0.00 0.00 66 1015.6
20260502065616 52 232 0.0 0.0 0.00 0.00 0.00 65 1015.6
20260502065118 52 230 1.0 1.0 0.00 0.00 0.00 64 1015.6
20260502064619 52 241 0.0 1.0 0.00 0.00 0.00 63 1015.9
20260502064116 52 307 1.0 2.0 0.00 0.00 0.00 63 1015.9
20260502063620 52 257 1.0 2.0 0.00 0.00 0.00 63 1015.9
20260502063115 52 301 1.0 2.0 0.00 0.00 0.00 63 1015.9
20260502062615 52 327 2.0 3.0 0.00 0.00 0.00 63 1015.9
20260502062121 52 292 2.0 2.0 0.00 0.00 0.00 63 1015.9
20260502061615 52 273 2.0 3.0 0.00 0.00 0.00 64 1015.9
20260502061115 52 297 1.0 2.0 0.00 0.00 0.00 64 1015.9
20260502060614 52 249 1.0 1.0 0.00 0.00 0.00 65 1015.9
20260502060118 52 281 1.0 1.0 0.00 0.00 0.00 65 1015.9
20260502055616 52 262 1.0 1.0 0.00 0.00 0.00 64 1015.9
20260502055114 52 289 0.0 1.0 0.00 0.00 0.00 65 1015.6
20260502054614 52 256 0.0 1.0 0.00 0.00 0.00 65 1015.9
20260502054115 52 231 1.0 1.0 0.00 0.00 0.00 65 1015.9
20260502053617 52 224 0.0 1.0 0.00 0.00 0.00 65 1015.9
20260502053114 52 314 1.0 2.0 0.00 0.00 0.00 65 1015.6
20260502052615 52 72 0.0 0.0 0.00 0.00 0.00 65 1015.6
20260502052114 52 245 1.0 2.0 0.00 0.00 0.00 65 1015.6
20260502051617 52 106 1.0 2.0 0.00 0.00 0.00 65 1015.6
20260502051115 53 254 1.0 1.0 0.00 0.00 0.00 65 1015.2
20260502050613 53 263 1.0 2.0 0.00 0.00 0.00 65 1015.2
20260502050115 53 260 3.0 3.0 0.00 0.00 0.00 64 1015.6
20260502045612 53 297 1.0 2.0 0.00 0.00 0.00 64 1015.6
20260502045114 53 288 2.0 2.0 0.00 0.00 0.00 64 1015.6
20260502044613 53 248 1.0 1.0 0.00 0.00 0.00 64 1015.6
20260502044113 53 39 3.0 5.0 0.00 0.00 0.00 63 1015.2
20260502043613 53 311 1.0 2.0 0.00 0.00 0.00 63 1015.2
20260502043114 54 352 3.0 7.0 0.00 0.00 0.00 63 1015.2
20260502042616 54 92 0.0 1.0 0.00 0.00 0.00 62 1015.2
20260502042113 54 54 3.0 5.0 0.00 0.00 0.00 62 1015.2
20260502041613 54 349 4.0 7.0 0.00 0.00 0.00 62 1015.2
20260502041113 54 139 4.0 7.0 0.00 0.00 0.00 61 1014.9
20260502040614 55 144 1.0 2.0 0.00 0.00 0.00 61 1014.9
20260502040114 55 146 3.0 6.0 0.00 0.00 0.00 60 1014.9
20260502035612 55 136 2.0 3.0 0.00 0.00 0.00 60 1014.9
20260502035113 55 352 5.0 6.0 0.00 0.00 0.00 60 1014.9
20260502034613 55 61 4.0 6.0 0.00 0.00 0.00 60 1014.9
20260502034112 55 192 4.0 7.0 0.00 0.00 0.00 59 1014.9
20260502033614 55 26 4.0 7.0 0.00 0.00 0.00 59 1014.6
20260502033113 55 66 3.0 5.0 0.00 0.00 0.00 59 1014.9
20260502032613 55 16 5.0 8.0 0.00 0.00 0.00 59 1014.6
20260502032113 55 196 2.0 3.0 0.00 0.00 0.00 59 1014.6
20260502031615 56 6 3.0 3.0 0.00 0.00 0.00 59 1014.6
20260502031111 56 324 5.0 8.0 0.00 0.00 0.00 59 1014.2
20260502030612 56 275 6.0 8.0 0.00 0.00 0.00 59 1014.2
20260502030115 57 308 4.0 6.0 0.00 0.00 0.00 58 1014.2
20260502025612 58 2 4.0 6.0 0.00 0.00 0.00 57 1013.9
20260502025112 59 343 3.0 6.0 0.00 0.00 0.00 57 1013.9
20260502024616 60 129 9.0 17.0 0.00 0.00 0.00 57 1013.9
20260502024112 61 207 2.0 3.0 0.00 0.00 0.00 56 1013.9
20260502023611 62 271 7.0 10.0 0.00 0.00 0.00 54 1013.5
20260502023114 63 111 5.0 10.0 0.00 0.00 0.00 44 1013.5
20260502022614 63 291 1.0 1.0 0.00 0.00 0.00 42 1012.9
20260502022113 63 218 0.0 1.0 0.00 0.00 0.00 41 1012.9
20260502021613 63 142 0.0 0.0 0.00 0.00 0.00 41 1012.9
20260502021111 64 201 0.0 0.0 0.00 0.00 0.00 40 1012.9
20260502020611 64 184 1.0 1.0 0.00 0.00 0.00 40 1012.5
20260502020113 64 246 0.0 1.0 0.00 0.00 0.00 40 1012.5
20260502015615 64 299 2.0 3.0 0.00 0.00 0.00 39 1012.5
20260502015111 64 30 3.0 5.0 0.00 0.00 0.00 39 1012.5
20260502014613 65 82 2.0 2.0 0.00 0.00 0.00 39 1012.5
20260502014113 65 108 1.0 2.0 0.00 0.00 0.00 39 1012.5
20260502013612 65 281 2.0 3.0 0.00 0.00 0.00 38 1012.5
20260502013113 65 184 3.0 5.0 0.00 0.00 0.00 38 1012.5
20260502012615 65 125 0.0 1.0 0.00 0.00 0.00 38 1012.5
20260502012118 65 9 3.0 5.0 0.00 0.00 0.00 38 1012.5
20260502011614 65 200 2.0 3.0 0.00 0.00 0.00 38 1012.2
20260502011111 66 82 5.0 6.0 0.00 0.00 0.00 37 1012.2
20260502010613 66 151 2.0 2.0 0.00 0.00 0.00 37 1012.2
20260502010114 66 18 3.0 6.0 0.00 0.00 0.00 37 1012.2
20260502005613 66 93 2.0 3.0 0.00 0.00 0.00 38 1012.2
20260502005113 66 64 3.0 3.0 0.00 0.00 0.00 37 1012.2
20260502004616 67 247 2.0 2.0 0.00 0.00 0.00 37 1012.2
20260502004115 67 20 3.0 5.0 0.00 0.00 0.00 37 1012.2
20260502003541 68 276 2.0 2.0 0.00 0.00 0.00 36 1012.2
20260502003111 68 188 1.0 2.0 0.00 0.00 0.00 36 1012.2
20260502002614 68 304 2.0 2.0 0.00 0.00 0.00 36 1012.2
20260502002113 68 223 1.0 1.0 0.00 0.00 0.00 35 1011.9
20260502001611 69 331 3.0 7.0 0.00 0.00 0.00 34 1011.9
20260502001112 69 17 2.0 3.0 0.00 0.00 0.00 33 1011.9
20260502000612 69 233 1.0 2.0 0.00 0.00 0.00 34 1011.9
20260502000114 69 132 0.0 1.0 0.00 0.00 0.00 33 1011.9
20260501235612 69 39 1.0 1.0 0.00 0.00 0.00 33 1011.9
20260501235111 69 67 1.0 1.0 0.00 0.00 0.00 33 1011.9
20260501234614 68 301 1.0 2.0 0.00 0.00 0.00 33 1011.9
20260501234113 68 289 4.0 6.0 0.00 0.00 0.00 32 1011.9
20260501233611 68 284 3.0 5.0 0.00 0.00 0.00 32 1011.9
20260501233043 68 257 0.0 1.0 0.00 0.00 0.00 32 1011.9
20260501232536 68 259 1.0 2.0 0.00 0.00 0.00 32 1011.9
20260501232039 68 253 3.0 3.0 0.00 0.00 0.00 32 1011.9
20260501231539 68 76 0.0 1.0 0.00 0.00 0.00 32 1011.9
20260501231035 68 223 0.0 0.0 0.00 0.00 0.00 32 1011.9
20260501230537 68 270 1.0 3.0 0.00 0.00 0.00 32 1011.9
20260501230039 68 249 3.0 3.0 0.00 0.00 0.00 32 1012.2
20260501225537 69 277 2.0 2.0 0.00 0.00 0.00 32 1011.9
20260501225038 69 31 2.0 5.0 0.00 0.00 0.00 32 1012.2
20260501224538 69 98 0.0 1.0 0.00 0.00 0.00 33 1012.2
20260501224038 69 34 1.0 3.0 0.00 0.00 0.00 32 1011.9
20260501223541 69 248 1.0 1.0 0.00 0.00 0.00 33 1012.2
20260501223038 69 238 3.0 5.0 0.00 0.00 0.00 33 1012.2
20260501222535 69 317 2.0 2.0 0.00 0.00 0.00 32 1011.9
20260501222039 68 142 0.0 1.0 0.00 0.00 0.00 32 1012.2
20260501221514 68 301 3.0 5.0 0.00 0.00 0.00 33 1012.2
20260501220941 68 254 1.0 2.0 0.00 0.00 0.00 32 1012.2
20260501220417 68 255 2.0 3.0 0.00 0.00 0.00 32 1011.9
20260501215914 68 333 4.0 6.0 0.00 0.00 0.00 32 1012.2
20260501215413 69 293 3.0 6.0 0.00 0.00 0.00 32 1012.2
20260501214914 68 297 5.0 7.0 0.00 0.00 0.00 31 1012.2
20260501214411 68 261 4.0 5.0 0.00 0.00 0.00 31 1011.9
20260501213841 68 270 4.0 8.0 0.00 0.00 0.00 32 1012.2
20260501213339 68 314 4.0 7.0 0.00 0.00 0.00 32 1012.2
20260501212838 68 298 5.0 8.0 0.00 0.00 0.00 32 1012.2
20260501212337 68 322 2.0 2.0 0.00 0.00 0.00 33 1011.9
20260501211838 68 296 7.0 8.0 0.00 0.00 0.00 33 1012.2
20260501211338 68 249 3.0 5.0 0.00 0.00 0.00 33 1011.9
20260501210840 68 272 5.0 6.0 0.00 0.00 0.00 32 1011.9
20260501210312 69 321 6.0 11.0 0.00 0.00 0.00 32 1012.2
20260501205813 69 272 6.0 10.0 0.00 0.00 0.00 32 1012.2
20260501205311 69 224 5.0 7.0 0.00 0.00 0.00 31 1012.2
20260501204815 69 288 7.0 9.0 0.00 0.00 0.00 32 1011.9
20260501204311 69 264 5.0 7.0 0.00 0.00 0.00 32 1011.9
20260501203811 68 312 5.0 6.0 0.00 0.00 0.00 31 1011.9
20260501203313 68 259 2.0 2.0 0.00 0.00 0.00 32 1012.2
20260501202815 68 244 8.0 10.0 0.00 0.00 0.00 32 1012.2
20260501202313 68 216 1.0 2.0 0.00 0.00 0.00 32 1012.2
20260501201814 68 283 2.0 3.0 0.00 0.00 0.00 33 1011.9
20260501201315 68 309 7.0 9.0 0.00 0.00 0.00 32 1011.9
20260501200817 69 293 8.0 11.0 0.00 0.00 0.00 32 1011.9
20260501200312 69 330 4.0 5.0 0.00 0.00 0.00 33 1011.9
20260501195810 69 292 6.0 9.0 0.00 0.00 0.00 33 1011.9
20260501195317 69 253 7.0 9.0 0.00 0.00 0.00 32 1012.2
20260501194815 69 270 4.0 6.0 0.00 0.00 0.00 32 1011.9
20260501194314 69 263 6.0 8.0 0.00 0.00 0.00 32 1012.2
20260501193813 69 306 3.0 3.0 0.00 0.00 0.00 33 1011.9
20260501193315 70 249 7.0 10.0 0.00 0.00 0.00 32 1011.9
20260501192814 70 12 5.0 6.0 0.00 0.00 0.00 32 1011.9
20260501192316 69 267 9.0 11.0 0.00 0.00 0.00 31 1011.9
20260501191811 69 309 5.0 6.0 0.00 0.00 0.00 30 1012.2
20260501191310 69 286 5.0 8.0 0.00 0.00 0.00 30 1011.9
20260501190815 69 269 9.0 13.0 0.00 0.00 0.00 30 1011.9
20260501190317 69 312 7.0 9.0 0.00 0.00 0.00 30 1011.9
20260501185811 69 290 3.0 3.0 0.00 0.00 0.00 30 1011.9
20260501185313 69 222 2.0 3.0 0.00 0.00 0.00 30 1011.9
20260501184816 70 297 0.0 1.0 0.00 0.00 0.00 30 1011.9
20260501184316 70 330 2.0 3.0 0.00 0.00 0.00 29 1011.9
20260501183811 70 238 2.0 3.0 0.00 0.00 0.00 30 1011.9
20260501183314 69 296 4.0 6.0 0.00 0.00 0.00 30 1012.2
20260501182811 69 284 2.0 2.0 0.00 0.00 0.00 30 1011.9
20260501182309 69 262 1.0 1.0 0.00 0.00 0.00 29 1012.2
20260501181814 69 242 2.0 2.0 0.00 0.00 0.00 31 1012.2
20260501181312 69 292 1.0 2.0 0.00 0.00 0.00 31 1012.2
20260501180814 69 296 3.0 3.0 0.00 0.00 0.00 32 1012.2
20260501180242 69 263 1.0 2.0 0.00 0.00 0.00 32 1012.2
20260501175737 69 305 3.0 5.0 0.00 0.00 0.00 32 1012.2
20260501175242 69 69 1.0 2.0 0.00 0.00 0.00 33 1012.2
20260501174739 69 143 0.0 0.0 0.00 0.00 0.00 33 1012.5
20260501174239 69 151 2.0 2.0 0.00 0.00 0.00 33 1012.2